Location: Katzenstein
(51.7484°N, 10.2155°E)
Time: 23:11:28
(UTC+00:00)

Cosmos 1805 Rocket - Pass Details

Date: 17 February 2020
Orbit: 606 x 629 km, 82.5° (Epoch: 05 April)

Event Time Altitude Azimuth Distance (km) Brightness Sun altitude
Rises 04:46:19 0° 350° (N) 2,883 6.9 -16.8°
Reaches altitude 10° 04:48:33 10° 351° (N) 1,972 6.1 -16.4°
Maximum altitude 04:52:56 79° 79° (E) 626 3.6 -15.7°
Drops below altitude 10° 04:57:15 10° 166° (SSE) 1,955 6.3 -15.1°
Sets 04:59:27 0° 168° (SSE) 2,855 7.1 -14.7°
